Regional Weather Roundup
Issued by NWS

Home | Current Version | Previous Version | Graphics & Text | Print | Product List | Glossary On
Versions: 1 2 3 4 5 6 7 8 9 10 11 12 13 14 15 16 17 18 19 20 21 22 23 24 25 26 27 28 29 30 31 32 33 34 35 36 37 38 39 40 41 42 43 44 45 46 47 48 49 50
000
ASUS45 KBOI 260710
RWRID
WEATHER ROUNDUP FOR IDAHO
NATIONAL WEATHER SERVICE BOISE ID
100 AM MDT THU MAR 26 2015

NOTE: "FAIR" INDICATES FEW OR NO CLOUDS BELOW 12000 FEET
WITH NO SIGNIFICANT WEATHER AND/OR OBSTRUCTIONS TO VISIBILITY

IDZ012-014-260800-
SOUTHWEST IDAHO


CITY           SKY/WX    TMP DP  RH WIND       PRES   REMARKS
BOISE          FAIR      40  33  76 S3        30.41S
CALDWELL       FAIR      39  28  65 CALM      30.44F
MOUNTAIN HOME  FAIR      39  33  77 NW8       30.41R WCI  34
$$

IDZ016-017-260800-
SOUTHCENTRAL IDAHO


CITY           SKY/WX    TMP DP  RH WIND       PRES   REMARKS
BURLEY         FAIR      42  30  62 SW12      30.38S
JEROME         FAIR      40  31  70 S9        30.39S WCI  34
TWIN FALLS     FAIR      40  29  64 S12       30.39F WCI  33
$$

IDZ019>023-260800-
SOUTHEAST IDAHO


CITY           SKY/WX    TMP DP  RH WIND       PRES   REMARKS
IDAHO FALLS    FAIR      37  23  56 SW12      30.36R WCI  29
POCATELLO      FAIR      41  29  62 SW13      30.40R
REXBURG        MOCLDY    39  23  52 S12       30.34R WCI  32
$$

IDZ006-010-011-018-031-032-260800-
CENTRAL IDAHO MOUNTAINS


CITY           SKY/WX    TMP DP  RH WIND       PRES   REMARKS
MCCALL         MOCLDY    32  30  92 CALM      30.40S
HAILEY         FAIR      36  28  75 NW12      30.39R WCI  27
STANLEY          N/A     29  24  82 SE3       30.43R
SALMON         CLOUDY    45  28  53 CALM      30.35S
CHALLIS        CLOUDY    43  27  53 CALM      30.39R
$$

IDZ002-004-006-007-026-260800-
NORTHERN IDAHO


CITY           SKY/WX    TMP DP  RH WIND       PRES   REMARKS
LEWISTON       FAIR      50  42  74 CALM      30.34S
LOWELL           N/A     45  43  93 CALM      30.43S
COEUR D`ALENE  CLOUDY    45  43  93 SE7       30.32R
MULLAN PASS    FOG       32  32 100 SW8       30.28F VSB 1/4 WCI  25
$$


USA.gov is the U.S. government's official web portal to all federal, state and local government web resources and services.